Weather History for Cairns, QU

Change the Weather History Date:

Saturday, December 15, 2012

  Actual Average Record
Temperature  
Mean Temperature 76 °F -  
Max Temperature 89 °F 88 °F 91 °F (2007)
Min Temperature 64 °F 74 °F 64 °F (2012)
Cooling Degree Days 12    
Growing Degree Days 26 (Base 50)    
Moisture  
Dew Point 63 °F    
Average Humidity 64    
Maximum Humidity 94    
Minimum Humidity 18    
Precipitation  
Precipitation 0.00 in 0.39 in - ()
Sea Level Pressure  
Sea Level Pressure 29.85 in    
Wind  
Wind Speed 4 mph ()    
Max Wind Speed 13 mph    
Max Gust Speed -    
Visibility 7.7 miles    
Events      
Averages and records for this station are not official NWS values.
T = Trace of Precipitation, MM = Missing Value Source: Averaged Metar Reports

Daily Weather History Graph

Daily Weather History Graph

Search for Another Location

Airport:

Trip Planner

Search our weather history database for the weather conditions in past years. The results will help you decide how hot, cold, wet, or windy it might be!

Date:

Astronomy

Dec. 15, 2012 Rise Set
Actual Time 5:38 AM EST 6:46 PM EST
Civil Twilight 5:14 AM EST 7:10 PM EST
Nautical Twilight 4:45 AM EST 7:38 PM EST
Astronomical Twilight 4:16 AM EST 8:07 PM EST
Moon 7:20 AM EST (12/15) 8:36 PM EST (12/15)
Length of Visible Light 13h 55m
Length of Day
13h 07m
Waxing Crescent, 4% of the Moon is Illuminated
Dec 15
Waxing Crescent
Dec 20
First Quarter
Dec 28
Full
Jan 5
Last Quarter
Jan 12
New

Hourly Weather History & Observations

Time (EST) Temp. Heat Index Dew Point Humidity Pressure Visibility Wind Dir Wind Speed Gust Speed Precip Events Conditions
12:00 AM 70 °F - 67 °F 85% 29.89 in - West 3.5 mph - -  
12:00 AM 69.8 °F - 66.2 °F 88% 29.89 in 6.2 mi West 3.5 mph - N/A   Partly Cloudy
12:30 AM 69.8 °F - 66.2 °F 88% 29.86 in 6.2 mi WNW 2.3 mph - N/A   Partly Cloudy
1:00 AM 68 °F - 66 °F 91% 29.88 in - Calm Calm - -  
1:00 AM 68.0 °F - 66.2 °F 94% 29.86 in 6.2 mi Calm Calm - N/A   Partly Cloudy
1:30 AM 68.0 °F - 64.4 °F 88% 29.86 in 6.2 mi Calm Calm - N/A   Partly Cloudy
2:00 AM 68.0 °F - 66.2 °F 94% 29.86 in 6.2 mi Calm Calm - N/A   Partly Cloudy
2:30 AM 66.2 °F - 64.4 °F 94% 29.86 in 6.2 mi Calm Calm - N/A   Partly Cloudy
3:00 AM 68.0 °F - 66.2 °F 94% 29.86 in 6.2 mi Calm Calm - N/A   Partly Cloudy
3:30 AM 66.2 °F - 64.4 °F 94% 29.86 in 6.2 mi WNW 1.2 mph - N/A   Partly Cloudy
4:00 AM 66 °F - 65 °F 94% 29.88 in - Calm Calm - -  
4:00 AM 66.2 °F - 64.4 °F 94% 29.86 in 6.2 mi Calm Calm - N/A   Partly Cloudy
4:30 AM 66.2 °F - 64.4 °F 94% 29.86 in 6.2 mi Calm Calm - N/A   Partly Cloudy
5:00 AM 66.2 °F - 64.4 °F 94% 29.86 in 6.2 mi WNW 1.2 mph - N/A   Partly Cloudy
5:30 AM 66.2 °F - 64.4 °F 94% 29.86 in 6.2 mi Calm Calm - N/A   Partly Cloudy
6:00 AM 66 °F - 64 °F 93% 29.88 in 19 mi Calm Calm - -   Partly Cloudy
6:00 AM 66.2 °F - 64.4 °F 94% 29.86 in 6.2 mi Calm Calm - N/A   Partly Cloudy
6:30 AM 69.8 °F - 66.2 °F 88% 29.89 in 6.2 mi WNW 2.3 mph - N/A   Partly Cloudy
7:00 AM 72 °F - 65 °F 72% 29.91 in - West 1.2 mph - -  
7:00 AM 71.6 °F - 64.4 °F 78% 29.89 in 6.2 mi West 1.2 mph - N/A   Partly Cloudy
7:30 AM 77.0 °F - 64.4 °F 65% 29.89 in 6.2 mi Calm Calm - N/A   Partly Cloudy
8:00 AM 78.8 °F - 64.4 °F 61% 29.89 in 6.2 mi Calm Calm - N/A   Partly Cloudy
8:30 AM 82.4 °F 83.4 °F 62.6 °F 51% 29.89 in 6.2 mi East 5.8 mph - N/A   Partly Cloudy
9:00 AM 83 °F - 62 °F 40% 29.90 in 19 mi East 6.9 mph - -   Partly Cloudy
9:00 AM 82.4 °F 83.4 °F 62.6 °F 51% 29.89 in 6.2 mi East 6.9 mph - N/A   Partly Cloudy
9:30 AM 84.2 °F 85.0 °F 62.6 °F 48% 29.89 in 6.2 mi South 4.6 mph - N/A   Partly Cloudy
10:00 AM 85 °F - 63 °F 37% 29.90 in - NE 9.2 mph - -  
10:00 AM 86.0 °F 86.6 °F 62.6 °F 45% 29.89 in 6.2 mi NE 9.2 mph - N/A   Partly Cloudy
10:30 AM 84.2 °F 85.0 °F 62.6 °F 48% 29.89 in 6.2 mi NE 9.2 mph - N/A   Partly Cloudy
11:00 AM 86.0 °F 85.4 °F 59.0 °F 40% 29.86 in 6.2 mi North 10.4 mph - N/A   Partly Cloudy
11:30 AM 87.8 °F 86.1 °F 55.4 °F 33% 29.86 in 6.2 mi NNE 10.4 mph - N/A   Partly Cloudy
12:00 PM 88 °F - 54 °F 22% 29.86 in 19 mi North 10.4 mph - -   Partly Cloudy
12:00 PM 87.8 °F 85.7 °F 53.6 °F 31% 29.86 in 6.2 mi North 10.4 mph - N/A   Partly Cloudy
12:30 PM 87.8 °F - 51.8 °F 29% 29.83 in 6.2 mi North 11.5 mph - N/A   Partly Cloudy
1:00 PM 89 °F - 51 °F 18% 29.84 in - North 11.5 mph - -  
1:00 PM 89.6 °F - 51.8 °F 27% 29.83 in 6.2 mi North 11.5 mph - N/A   Partly Cloudy
1:30 PM 87.8 °F 87.6 °F 60.8 °F 40% 29.80 in 6.2 mi North 11.5 mph - N/A   Partly Cloudy
2:00 PM 86.0 °F 84.9 °F 57.2 °F 37% 29.80 in 6.2 mi NNE 11.5 mph - N/A   Partly Cloudy
2:30 PM 86.0 °F 84.9 °F 57.2 °F 37% 29.80 in 6.2 mi NNE 12.7 mph - N/A   Partly Cloudy
3:00 PM 87 °F - 58 °F 27% 29.80 in 19 mi NNE 10.4 mph - -   Partly Cloudy
3:00 PM 86.0 °F 84.9 °F 57.2 °F 37% 29.80 in - NNE 10.4 mph - N/A   Clear
3:30 PM 86.0 °F 85.4 °F 59.0 °F 40% 29.80 in - NNE 10.4 mph - N/A   Clear
4:00 PM 85 °F - 59 °F 31% 29.79 in - NNE 10.4 mph - -  
4:00 PM 86.0 °F 85.4 °F 59.0 °F 40% 29.77 in - NNE 10.4 mph - N/A   Clear
4:30 PM 84.2 °F 85.0 °F 62.6 °F 48% 29.77 in - NNE 6.9 mph - N/A   Clear
5:00 PM 82.4 °F 83.9 °F 64.4 °F 54% 29.77 in - NE 6.9 mph - N/A   Clear
5:30 PM 82.4 °F 83.9 °F 64.4 °F 54% 29.77 in - NNE 8.1 mph - N/A   Clear
6:00 PM 81 °F - 64 °F 47% 29.79 in - North 8.1 mph - -  
6:00 PM 80.6 °F 82.3 °F 64.4 °F 58% 29.77 in - North 8.1 mph - N/A   Clear
6:30 PM 78.8 °F - 64.4 °F 61% 29.80 in - North 8.1 mph - N/A   Clear
7:00 PM 77 °F - 64 °F 56% 29.82 in - North 5.8 mph - -  
7:00 PM 77.0 °F - 64.4 °F 65% 29.80 in 6.2 mi North 5.8 mph - N/A   Unknown
7:30 PM 77.0 °F - 66.2 °F 69% 29.80 in - North 2.3 mph - N/A   Clear
8:00 PM 75.2 °F - 66.2 °F 73% 29.83 in - Calm Calm - N/A   Clear
8:30 PM 75.2 °F - 66.2 °F 73% 29.83 in - Calm Calm - N/A   Clear
9:00 PM 73 °F - 66 °F 74% 29.85 in - West 4.6 mph - -  
9:00 PM 73.4 °F - 66.2 °F 78% 29.83 in - West 4.6 mph - N/A   Clear
9:30 PM 75.2 °F - 66.2 °F 73% 29.86 in - West 5.8 mph - N/A   Clear
10:00 PM 73 °F - 67 °F 75% 29.86 in - West 4.6 mph - -  
10:00 PM 73.4 °F - 66.2 °F 78% 29.86 in - West 4.6 mph - N/A   Clear
10:30 PM 73.4 °F - 66.2 °F 78% 29.86 in - West 5.8 mph - N/A   Clear
11:00 PM 73.4 °F - 66.2 °F 78% 29.86 in - West 5.8 mph - N/A   Clear
11:30 PM 71.6 °F - 66.2 °F 83% 29.83 in - WSW 4.6 mph - N/A   Clear